{"data":{"norad_id":68371,"intl_designator":"2026-061M","name":"RASSVET-3 12","alt_names":[],"object_type":"PAYLOAD","status":"ACTIVE","operator":null,"country":"CIS","launch_date":"2026-03-23","launch_site_code":"PLMSC","launch_vehicle":null,"mission":null,"orbit_class":"UNKNOWN","rcs_meters":null,"size_class":null,"mass_kg":null,"dimensions":null,"purposes":[],"wikipedia_slug":null,"has_3d_model":false,"image_url":null,"decayed_at":null,"tle_current":{"epoch":"2026-05-25T02:31:01.410816Z","epoch_age_seconds":63228,"freshness":"FRESH","line1":"1 68371U 26061M   26145.10487744  .00030319  00000+0  35165-3 0  9991","line2":"2 68371  82.2927  38.6752 0003122 282.2576  77.8331 15.61626082  9878","mean_motion":15.61626082,"eccentricity":0.0003122,"inclination_deg":82.2927,"raan_deg":38.6752,"arg_perigee_deg":282.2576,"mean_anomaly_deg":77.8331,"bstar":0.00035165,"rev_number":987,"period_min":92.21157462712,"perigee_km":380.84875003121,"apogee_km":385.07037872601,"semimajor_km":6761.0965643786,"source":"CELESTRAK","updated_at":"2026-05-25T13:38:07.766929Z"}}}